Location: Monrovia
(34.7865°N, 86.7139°W)
Time: 14:26:29
(UTC+00:00)

Cosmos-2242 - Pass Details

Date: 14 July 2020
Orbit: 592 x 616 km, 82.5° (Epoch: 13 August)

Event Time Altitude Azimuth Distance (km) Brightness Sun altitude
Rises 01:45:16 0° 358° (N) 2,882 7.0 -8.6°
Reaches altitude 10° 01:47:31 10° 2° (N) 1,976 6.1 -9.0°
Maximum altitude 01:51:49 57° 81° (E) 728 3.2 -9.7°
Drops below altitude 10° 01:56:07 10° 161° (SSE) 1,969 5.2 -10.4°
Enters shadow 01:56:25 - 162° (SSE) 2,086 5.3 -10.5°
